Ludington, MI

5:43 AM EDT on October 15, 2019 (GMT -0400)
Mason County

Weather History for KLDM - September, 2019

Change the Weather History Date:

Tuesday, September 17, 2019

  Actual Average Record
Temperature  
Mean Temperature 64 °F -  
Max Temperature 75 °F 70 °F 85 °F (1955)
Min Temperature 54 °F 50 °F 30 °F (1959)
Growing Degree Days 14 (Base 50)    
Moisture  
Dew Point 60 °F    
Average Humidity 90    
Maximum Humidity 96    
Minimum Humidity 65    
Precipitation  
Precipitation 0.00 in - - ()
Sea Level Pressure  
Sea Level Pressure 30.17 in    
Wind  
Wind Speed 3 mph (SE)    
Max Wind Speed 7 mph    
Max Gust Speed -    
Visibility 6 miles    
Events Fog    
Averages and records for this station are not official NWS values.
T = Trace of Precipitation, MM = Missing Value Source: NWS Daily Summary

Daily Weather History Graph

Daily Weather History Graph

Search for Another Location

Airport or City:

Astronomy

Sep. 17, 2019 Rise Set
Actual Time 7:26 AM EDT 7:52 PM EDT
Civil Twilight 6:57 AM EDT 8:21 PM EDT
Nautical Twilight 6:23 AM EDT 8:55 PM EDT
Astronomical Twilight 5:48 AM EDT 9:30 PM EDT
Moon 9:49 PM EDT (9/17) 10:36 AM EDT (9/17)
Length of Visible Light 13h 23m
Length of Day
12h 25m
Waning Gibbous, 89% of the Moon is Illuminated
Sep 17
Waning Gibbous
Sep 21
Last Quarter
Sep 28
New
Oct 5
First Quarter
Oct 13
Full

Hourly Weather History & Observations

Time (EDT) Temp. Dew Point Humidity Pressure Visibility Wind Dir Wind Speed Gust Speed Precip Events Conditions
12:15 AM 58.1 °F 56.8 °F 96% 30.15 in 4.0 mi Calm Calm - N/A   Scattered Clouds
12:16 AM 57.9 °F 56.7 °F 96% 30.15 in 4.0 mi Calm Calm - N/A   Scattered Clouds
12:35 AM 56.5 °F 55.4 °F 96% 30.15 in 2.5 mi Calm Calm - N/A   Clear
12:36 AM 56.5 °F 55.2 °F 96% 30.15 in 2.5 mi Calm Calm - N/A   Clear
12:59 AM 57.6 °F 56.3 °F 96% 30.15 in 5.0 mi Calm Calm - N/A   Clear
1:17 AM 56.7 °F 55.4 °F 96% 30.15 in 3.0 mi Calm Calm - N/A   Clear
1:35 AM 55.9 °F 54.7 °F 96% 30.15 in 1.8 mi Calm Calm - N/A   Mist
1:36 AM 56.1 °F 54.7 °F 95% 30.15 in 1.8 mi Calm Calm - N/A   Mist
1:55 AM 56.5 °F 55.2 °F 96% 30.15 in 3.0 mi Calm Calm - N/A   Clear
2:15 AM 55.0 °F 54.0 °F 96% 30.15 in 2.5 mi Calm Calm - N/A   Clear
2:20 AM 54.5 °F 53.2 °F 96% 30.15 in 1.0 mi Calm Calm - N/A   Mist
2:38 AM 55.6 °F 54.3 °F 96% 30.15 in 2.5 mi Calm Calm - N/A   Clear
2:56 AM 54.9 °F 53.6 °F 96% 30.15 in 1.8 mi East 3.5 mph - N/A   Mist
3:15 AM 55.6 °F 54.5 °F 96% 30.15 in 4.0 mi East 3.5 mph - N/A   Clear
3:35 AM 57.6 °F 56.3 °F 96% 30.15 in 7.0 mi ESE 3.5 mph - N/A   Clear
3:36 AM 57.6 °F 56.3 °F 96% 30.15 in 7.0 mi ESE 3.5 mph - N/A   Clear
3:59 AM 58.8 °F 57.6 °F 96% 30.15 in 10.0 mi ESE 4.6 mph - N/A   Clear
4:17 AM 59.4 °F 58.1 °F 96% 30.15 in 10.0 mi SE 4.6 mph - N/A   Clear
4:55 AM 59.2 °F 57.9 °F 96% 30.16 in 10.0 mi ESE 3.5 mph - N/A   Clear
5:15 AM 59.4 °F 58.1 °F 96% 30.16 in 10.0 mi ESE 5.8 mph - N/A   Clear
5:20 AM 59.4 °F 58.1 °F 96% 30.16 in 10.0 mi ESE 4.6 mph - N/A   Clear
5:38 AM 59.0 °F 57.9 °F 96% 30.17 in 10.0 mi ESE 4.6 mph - N/A   Clear
5:56 AM 58.5 °F 57.2 °F 96% 30.17 in 7.0 mi East 5.8 mph - N/A   Clear
6:15 AM 59.2 °F 57.9 °F 96% 30.19 in 2.5 mi ESE 5.8 mph - N/A   Mostly Cloudy
6:35 AM 59.5 °F 58.3 °F 96% 30.19 in 1.5 mi East 5.8 mph - N/A   Overcast
6:59 AM 59.5 °F 58.3 °F 96% 30.20 in 0.8 mi ESE 5.8 mph - N/A   Overcast
7:17 AM 59.5 °F 58.3 °F 96% 30.20 in 0.8 mi ESE 5.8 mph - N/A   Overcast
7:35 AM 59.9 °F 58.5 °F 95% 30.21 in 0.5 mi ESE 4.6 mph - N/A Fog Fog
7:55 AM 59.9 °F 58.6 °F 96% 30.22 in 0.5 mi ESE 6.9 mph - N/A Fog Fog
8:15 AM 60.1 °F 59.0 °F 96% 30.22 in 0.5 mi ESE 6.9 mph - N/A Fog Fog
8:38 AM 60.3 °F 59.0 °F 96% 30.22 in 0.5 mi ESE 6.9 mph - N/A Fog Fog
8:56 AM 60.8 °F 59.4 °F 95% 30.22 in 0.8 mi SE 6.9 mph - N/A   Overcast
9:15 AM 60.8 °F 59.4 °F 95% 30.22 in 0.8 mi ESE 4.6 mph - N/A   Overcast
9:35 AM 60.8 °F 59.7 °F 96% 30.22 in 0.8 mi SSE 4.6 mph - N/A   Overcast
9:59 AM 61.3 °F 60.1 °F 96% 30.22 in 1.8 mi SSE 4.6 mph - N/A   Overcast
10:17 AM 61.7 °F 60.3 °F 95% 30.22 in 1.2 mi SE 6.9 mph - N/A   Overcast
10:35 AM 62.1 °F 60.8 °F 96% 30.21 in 1.5 mi SE 5.8 mph - N/A   Overcast
10:55 AM 62.4 °F 61.2 °F 96% 30.21 in 3.0 mi SE 4.6 mph - N/A   Overcast
11:15 AM 63.7 °F 62.4 °F 96% 30.20 in 10.0 mi SSE 4.6 mph - N/A   Overcast
11:20 AM 63.7 °F 62.6 °F 96% 30.21 in 10.0 mi South 3.5 mph - N/A   Overcast
11:38 AM 64.9 °F 63.3 °F 94% 30.21 in 10.0 mi ESE 5.8 mph - N/A   Overcast
11:56 AM 65.7 °F 63.0 °F 91% 30.21 in 10.0 mi East 4.6 mph - N/A   Overcast
12:15 PM 66.6 °F 63.1 °F 89% 30.21 in 10.0 mi SE 4.6 mph - N/A   Mostly Cloudy
12:16 PM 66.7 °F 63.3 °F 89% 30.21 in 10.0 mi SE 4.6 mph - N/A   Mostly Cloudy
12:35 PM 68.2 °F 63.5 °F 85% 30.20 in 10.0 mi SSE 5.8 mph - N/A   Scattered Clouds
12:59 PM 69.6 °F 63.9 °F 82% 30.20 in 10.0 mi SE 5.8 mph - N/A   Scattered Clouds
1:17 PM 71.2 °F 64.6 °F 79% 30.20 in 10.0 mi SSE 3.5 mph - N/A   Clear
1:35 PM 72.1 °F 64.8 °F 78% 30.20 in 10.0 mi SSE 4.6 mph - N/A   Clear
1:55 PM 73.2 °F 64.4 °F 74% 30.19 in 10.0 mi South 5.8 mph - N/A   Scattered Clouds
2:20 PM 73.8 °F 64.2 °F 72% 30.19 in 10.0 mi WSW 4.6 mph - N/A   Scattered Clouds
2:38 PM 74.7 °F 63.9 °F 69% 30.19 in 10.0 mi Calm Calm - N/A   Mostly Cloudy
2:56 PM 74.5 °F 62.8 °F 67% 30.18 in 10.0 mi SE 4.6 mph - N/A   Scattered Clouds
3:15 PM 75.9 °F 63.3 °F 65% 30.17 in 10.0 mi South 5.8 mph - N/A   Scattered Clouds
3:35 PM 75.2 °F 64.8 °F 70% 30.17 in 10.0 mi WSW 5.8 mph - N/A   Scattered Clouds
3:59 PM 75.6 °F 64.6 °F 69% 30.16 in 10.0 mi WSW 4.6 mph - N/A   Clear
4:17 PM 73.6 °F 64.2 °F 72% 30.16 in 10.0 mi WSW 5.8 mph - N/A   Clear
4:35 PM 73.9 °F 64.2 °F 72% 30.15 in 10.0 mi West 5.8 mph - N/A   Clear
4:55 PM 74.5 °F 64.4 °F 71% 30.14 in 10.0 mi West 4.6 mph - N/A   Clear
5:15 PM 73.6 °F 63.5 °F 71% 30.14 in 10.0 mi West 5.8 mph - N/A   Clear
5:38 PM 72.0 °F 63.5 °F 75% 30.15 in 10.0 mi West 5.8 mph - N/A   Clear
5:56 PM 70.9 °F 63.0 °F 76% 30.15 in 10.0 mi WSW 4.6 mph - N/A   Clear
6:15 PM 70.3 °F 62.6 °F 76% 30.14 in 10.0 mi WSW 4.6 mph - N/A   Clear
6:35 PM 68.9 °F 61.9 °F 78% 30.14 in 10.0 mi WSW 5.8 mph - N/A   Clear
6:59 PM 67.6 °F 62.1 °F 82% 30.14 in 10.0 mi WSW 3.5 mph - N/A   Clear
7:17 PM 67.1 °F 62.6 °F 85% 30.14 in 10.0 mi WSW 4.6 mph - N/A   Clear
7:35 PM 66.2 °F 62.8 °F 89% 30.14 in 10.0 mi Calm Calm - N/A   Clear
7:55 PM 66.0 °F 63.0 °F 90% 30.13 in 10.0 mi Calm Calm - N/A   Clear
8:15 PM 64.0 °F 62.8 °F 96% 30.14 in 7.0 mi Calm Calm - N/A   Clear
8:20 PM 64.0 °F 62.8 °F 96% 30.14 in 7.0 mi Calm Calm - N/A   Clear
8:38 PM 61.9 °F 60.8 °F 96% 30.14 in 2.0 mi Calm Calm - N/A   Clear
8:56 PM 62.1 °F 60.8 °F 96% 30.15 in 3.0 mi Calm Calm - N/A   Clear
9:15 PM 61.3 °F 60.1 °F 96% 30.15 in 4.0 mi Calm Calm - N/A   Clear
9:35 PM 60.1 °F 58.8 °F 96% 30.15 in 0.5 mi Calm Calm - N/A Fog Fog
9:59 PM 60.4 °F 59.2 °F 96% 30.16 in 0.5 mi Calm Calm - N/A Fog Fog
10:17 PM 60.3 °F 59.0 °F 96% 30.16 in 0.8 mi Calm Calm - N/A   Mostly Cloudy
10:35 PM 59.2 °F 57.9 °F 96% 30.16 in 5.0 mi ESE 3.5 mph - N/A   Scattered Clouds
10:55 PM 60.4 °F 59.2 °F 96% 30.16 in 10.0 mi ESE 3.5 mph - N/A   Clear
11:15 PM 60.1 °F 58.8 °F 96% 30.16 in 10.0 mi ESE 3.5 mph - N/A   Clear
11:38 PM 59.4 °F 58.1 °F 96% 30.16 in 10.0 mi Calm Calm - N/A   Clear
11:55 PM 61.0 °F 59.7 °F 96% 30.15 in 10.0 mi SSE 3.5 mph - N/A   Clear